Weather History for Metropolis, IL

Change the Weather History Date:

Thursday, December 6, 2012

  Actual Average (KPAH) Record (KPAH)
Temperature  
Mean Temperature 50 °F 40 °F  
Max Temperature 56 °F 49 °F 72 °F (1951)
Min Temperature 43 °F 31 °F 5 °F (1984)
Degree Days  
Heating Degree Days 16 25  
Month to date heating degree days 145  
Since 1 July heating degree days 922  
Cooling Degree Days 0 0  
Month to date cooling degree days 0  
Year to date cooling degree days 1542  
Moisture  
Dew Point 48 °F    
Average Humidity 87    
Maximum Humidity 100    
Minimum Humidity 69    
Precipitation  
Precipitation 0.00 in 0.15 in 1.62 in (1957)
Month to date precipitation 0.92  
Year to date precipitation 45.41  
Snow  
Snow 0.00 in 0.00 in 4.80 in (2013)
Month to date snowfall 0.2  
Since 1 July snowfall 0.3  
Snow Depth -    
Sea Level Pressure  
Sea Level Pressure 30.00 in    
Wind  
Wind Speed 1 mph (SE)    
Max Wind Speed 6 mph    
Max Gust Speed -    
Visibility 8 miles    
Events      
T = Trace of Precipitation, MM = Missing Value Source: NWS Daily Summary

Daily Weather History Graph

Daily Weather History Graph

Search for Another Location

Airport:

Trip Planner

Search our weather history database for the weather conditions in past years. The results will help you decide how hot, cold, wet, or windy it might be!

Date:

Astronomy

Dec. 06, 2012 Rise Set
Actual Time 6:55 AM CST 4:37 PM CST
Civil Twilight 6:26 AM CST 5:06 PM CST
Nautical Twilight 5:53 AM CST 5:38 PM CST
Astronomical Twilight 5:22 AM CST 6:10 PM CST
Moon No Moon Rise 11:55 AM CST (12/6)
Length of Visible Light 10h 40m
Length of Day
9h 42m
Waning Gibbous, 49% of the Moon is Illuminated
Dec 6
Waning Gibbous
Dec 13
New
Dec 19
First Quarter
Dec 28
Full
Jan 4
Last Quarter

Hourly Weather History & Observations

Time (CST) Temp. Windchill Dew Point Humidity Pressure Visibility Wind Dir Wind Speed Gust Speed Precip Events Conditions
7:35 AM 43.7 °F - 36.9 °F 77% 30.09 in 10.0 mi Calm Calm - N/A   Overcast
7:55 AM 43.9 °F - 37.2 °F 77% 30.09 in 10.0 mi Calm Calm - N/A   Overcast
8:15 AM 44.6 °F - 37.6 °F 76% 30.09 in 10.0 mi Calm Calm - N/A   Overcast
8:35 AM 45.0 °F - 38.1 °F 77% 30.09 in 10.0 mi Calm Calm - N/A   Overcast
8:55 AM 45.5 °F 44.2 °F 38.3 °F 76% 30.09 in 10.0 mi ESE 3.5 mph - N/A   Overcast
9:15 AM 45.9 °F - 38.3 °F 75% 30.09 in 10.0 mi Calm Calm - N/A   Overcast
9:35 AM 46.9 °F - 38.8 °F 73% 30.09 in 10.0 mi ESE 3.5 mph - N/A   Overcast
9:55 AM 48.4 °F - 39.6 °F 72% 30.08 in 10.0 mi ESE 3.5 mph - N/A   Overcast
10:15 AM 50.0 °F - 40.3 °F 69% 30.08 in 10.0 mi SE 3.5 mph - N/A   Overcast
10:55 AM 52.0 °F - 41.9 °F 69% 30.05 in 10.0 mi SSE 5.8 mph - N/A   Overcast
11:15 AM 52.9 °F - 43.2 °F 70% 30.04 in 10.0 mi SSE 3.5 mph - N/A   Overcast
11:35 AM 54.1 °F - 44.4 °F 70% 30.03 in 10.0 mi Calm Calm - N/A   Overcast
11:55 AM 54.0 °F - 45.0 °F 72% 30.03 in 10.0 mi Calm Calm - N/A   Overcast
12:15 PM 54.7 °F - 45.1 °F 70% 30.01 in 10.0 mi Calm Calm - N/A   Overcast
12:35 PM 55.2 °F - 46.0 °F 71% 30.00 in 10.0 mi Calm Calm - N/A   Overcast
12:55 PM 55.8 °F - 46.2 °F 70% 29.99 in 10.0 mi Calm Calm - N/A   Overcast
1:15 PM 55.6 °F - 46.4 °F 71% 29.99 in 10.0 mi Calm Calm - N/A   Overcast
1:35 PM 56.3 °F - 46.8 °F 70% 29.99 in 10.0 mi Calm Calm - N/A   Overcast
1:55 PM 55.6 °F - 47.3 °F 74% 29.99 in 7.0 mi SSE 3.5 mph - N/A   Overcast
2:15 PM 53.8 °F - 48.4 °F 82% 29.99 in 5.0 mi Calm Calm - N/A   Overcast
2:35 PM 54.3 °F - 48.9 °F 82% 29.99 in 7.0 mi Calm Calm - N/A   Overcast
2:55 PM 53.6 °F - 48.9 °F 84% 29.99 in 5.0 mi ESE 3.5 mph - N/A   Overcast
3:15 PM 53.6 °F - 49.1 °F 85% 29.99 in 10.0 mi Calm Calm - N/A   Overcast
3:35 PM 53.2 °F - 51.4 °F 94% 29.98 in 4.0 mi Calm Calm - N/A   Overcast
3:55 PM 53.1 °F - 52.9 °F 99% 29.98 in 7.0 mi ESE 3.5 mph - N/A   Overcast
4:15 PM 53.1 °F - 52.7 °F 99% 29.98 in 10.0 mi ESE 3.5 mph - N/A   Overcast
4:55 PM 53.1 °F - 52.9 °F 99% 29.98 in 10.0 mi Calm Calm - N/A   Overcast
5:15 PM 52.9 °F - 52.9 °F 100% 29.97 in 10.0 mi Calm Calm - N/A   Overcast
6:35 PM 52.7 °F - 52.7 °F 100% 29.98 in 7.0 mi Calm Calm - N/A   Overcast
6:55 PM 52.3 °F - 52.3 °F 100% 29.98 in 7.0 mi Calm Calm - N/A   Overcast
7:15 PM 51.8 °F - 51.8 °F 100% 29.98 in 7.0 mi Calm Calm - N/A   Overcast
7:35 PM 51.8 °F - 51.8 °F 100% 29.97 in 7.0 mi Calm Calm - N/A   Overcast
7:55 PM 51.8 °F - 51.8 °F 100% 29.97 in 7.0 mi Calm Calm - N/A   Overcast
8:15 PM 52.0 °F - 52.0 °F 100% 29.97 in 7.0 mi Calm Calm - N/A   Overcast
8:35 PM 52.2 °F - 52.2 °F 100% 29.97 in 7.0 mi Calm Calm - N/A   Overcast
8:55 PM 52.5 °F - 52.5 °F 100% 29.97 in 7.0 mi Calm Calm - N/A   Overcast
9:15 PM 52.7 °F - 52.7 °F 100% 29.97 in 5.0 mi Calm Calm - N/A   Overcast
9:35 PM 52.9 °F - 52.9 °F 100% 29.97 in 4.0 mi Calm Calm - N/A   Overcast
9:55 PM 53.1 °F - 53.1 °F 100% 29.96 in 4.0 mi Calm Calm - N/A   Overcast
10:15 PM 53.6 °F - 53.6 °F 100% 29.96 in 3.0 mi SE 3.5 mph - N/A   Overcast
10:35 PM 53.6 °F - 53.6 °F 100% 29.96 in 3.0 mi Calm Calm - N/A   Overcast
10:55 PM 53.6 °F - 53.6 °F 100% 29.96 in 3.0 mi Calm Calm - N/A   Overcast
11:15 PM 53.6 °F - 53.6 °F 100% 29.95 in 3.0 mi Calm Calm - N/A   Overcast
11:35 PM 53.6 °F - 53.6 °F 100% 29.95 in 3.0 mi Calm Calm - N/A   Overcast
11:55 PM 53.6 °F - 53.6 °F 100% 29.95 in 4.0 mi Calm Calm - N/A   Overcast